When you browse on this site, cookies collect data to enhance your experience and personalize the content and advertising you see.
Visit our Privacy Policy to learn more. By continuing to use the site, you agree to this use of cookies and data.
  • In Hungary
  • List of Countries
  • For 7 days
  • Water Temperature
  • Weather Map
  • News
  • Weather Widgets
  • user-avatar
    Login

    Hourly Weather Cubara

    Today, 8 December, Sunday

    Time Temperature Precipitation Wind Pressure Humidity
    00:00 +24°C° 0 mm 1 mps 730 mmHg 76%
    01:00 +24°C° 0 mm 1 mps 730 mmHg 76%
    02:00 +23°C° 0.3 mm 1 mps 730 mmHg 78%
    03:00 +23°C° 0.3 mm 1 mps 729 mmHg 81%
    04:00 +22°C° 0.3 mm 1 mps 729 mmHg 83%
    05:00 +23°C° 0 mm 1 mps 730 mmHg 81%
    06:00 +24°C° 0 mm 1 mps 730 mmHg 78%
    07:00 +25°C° 0 mm 1 mps 730 mmHg 75%
    08:00 +27°C° 0.1 mm 1 mps 731 mmHg 71%
    09:00 +29°C° 0.1 mm 1 mps 731 mmHg 66%
    10:00 +31°C° 0.1 mm 1 mps 731 mmHg 62%
    11:00 +31°C° 0.4 mm 1 mps 730 mmHg 65%
    12:00 +31°C° 0.4 mm 2 mps 729 mmHg 68%
    13:00 +31°C° 0.4 mm 2 mps 728 mmHg 72%
    14:00 +30°C° 0.8 mm 1 mps 728 mmHg 76%
    15:00 +30°C° 0.8 mm 1 mps 728 mmHg 80%
    16:00 +29°C° 0.8 mm 1 mps 727 mmHg 84%
    17:00 +28°C° 0.6 mm 1 mps 728 mmHg 88%
    18:00 +26°C° 0.6 mm 1 mps 728 mmHg 91%
    19:00 +25°C° 0.6 mm 1 mps 729 mmHg 95%
    20:00 +24°C° 0.3 mm 1 mps 729 mmHg 95%
    21:00 +24°C° 0.3 mm 1 mps 729 mmHg 94%
    22:00 +24°C° 0.3 mm 1 mps 730 mmHg 94%
    23:00 +24°C° 0.6 mm 1 mps 730 mmHg 93%

    Tomorrow, 9 December, Monday

    Time Temperature Precipitation Wind Pressure Humidity
    00:00 +24°C° 0.6 mm 1 mps 729 mmHg 93%
    01:00 +23°C° 0.6 mm 1 mps 729 mmHg 93%
    02:00 +23°C° 0.8 mm 1 mps 729 mmHg 93%
    03:00 +24°C° 0.8 mm 1 mps 729 mmHg 93%
    04:00 +24°C° 0.8 mm 1 mps 729 mmHg 93%
    05:00 +24°C° 0.3 mm 1 mps 729 mmHg 93%
    06:00 +24°C° 0.3 mm 1 mps 730 mmHg 94%
    07:00 +24°C° 0.3 mm 1 mps 730 mmHg 94%
    08:00 +23°C° 0.3 mm 0 mps 730 mmHg 93%
    09:00 +23°C° 0.3 mm 0 mps 730 mmHg 93%
    10:00 +24°C° 0.3 mm 0 mps 731 mmHg 92%
    11:00 +27°C° 0.4 mm 1 mps 730 mmHg 87%
    12:00 +28°C° 0.4 mm 1 mps 729 mmHg 82%
    13:00 +29°C° 0.4 mm 1 mps 728 mmHg 77%
    14:00 +29°C° 0.1 mm 1 mps 728 mmHg 74%
    15:00 +27°C° 0.1 mm 0 mps 728 mmHg 72%
    16:00 +27°C° 0.1 mm 0 mps 727 mmHg 70%
    17:00 +28°C° 0 mm 1 mps 728 mmHg 76%
    18:00 +26°C° 0 mm 1 mps 728 mmHg 82%
    19:00 +25°C° 0 mm 1 mps 728 mmHg 88%
    20:00 +24°C° 0 mm 1 mps 729 mmHg 85%
    21:00 +24°C° 0 mm 1 mps 729 mmHg 82%
    22:00 +23°C° 0 mm 2 mps 730 mmHg 80%
    23:00 +23°C° 0 mm 1 mps 729 mmHg 75%

    Day after tomorrow, 10 December, Tuesday

    Time Temperature Precipitation Wind Pressure Humidity
    00:00 +23°C° 0 mm 1 mps 729 mmHg 71%
    01:00 +23°C° 0 mm 1 mps 729 mmHg 67%
    02:00 +22°C° 0 mm 1 mps 729 mmHg 67%
    03:00 +22°C° 0 mm 1 mps 728 mmHg 66%
    04:00 +22°C° 0 mm 1 mps 728 mmHg 65%
    05:00 +23°C° 0 mm 1 mps 729 mmHg 64%
    06:00 +23°C° 0 mm 1 mps 730 mmHg 64%
    07:00 +24°C° 0 mm 1 mps 730 mmHg 63%
    08:00 +27°C° 0 mm 1 mps 731 mmHg 56%
    09:00 +29°C° 0 mm 1 mps 731 mmHg 48%
    10:00 +32°C° 0 mm 1 mps 731 mmHg 41%
    11:00 +33°C° 0 mm 1 mps 730 mmHg 42%
    12:00 +34°C° 0 mm 2 mps 729 mmHg 42%
    13:00 +34°C° 0 mm 2 mps 728 mmHg 43%
    14:00 +34°C° 0 mm 2 mps 728 mmHg 47%
    15:00 +32°C° 0 mm 2 mps 727 mmHg 52%
    16:00 +31°C° 0 mm 1 mps 727 mmHg 56%
    17:00 +29°C° 0 mm 1 mps 727 mmHg 65%
    18:00 +27°C° 0 mm 1 mps 728 mmHg 74%
    19:00 +25°C° 0 mm 1 mps 728 mmHg 83%
    20:00 +25°C° 0 mm 1 mps 729 mmHg 81%
    21:00 +24°C° 0 mm 1 mps 729 mmHg 80%
    22:00 +24°C° 0 mm 1 mps 730 mmHg 78%
    23:00 +24°C° 0 mm 1 mps 730 mmHg 76%

    11 December, Wednesday

    Time Temperature Precipitation Wind Pressure Humidity
    00:00 +23°C° 0 mm 1 mps 729 mmHg 74%
    01:00 +23°C° 0 mm 1 mps 729 mmHg 72%
    02:00 +23°C° 0 mm 1 mps 729 mmHg 70%
    03:00 +23°C° 0 mm 1 mps 729 mmHg 68%
    04:00 +23°C° 0 mm 1 mps 728 mmHg 65%
    05:00 +23°C° 0 mm 1 mps 729 mmHg 64%
    06:00 +24°C° 0 mm 1 mps 729 mmHg 64%
    07:00 +24°C° 0 mm 1 mps 730 mmHg 63%
    08:00 +26°C° 0 mm 1 mps 730 mmHg 62%
    09:00 +27°C° 0 mm 1 mps 730 mmHg 61%
    10:00 +29°C° 0 mm 1 mps 730 mmHg 61%
    11:00 +30°C° 0 mm 1 mps 730 mmHg 58%
    12:00 +31°C° 0 mm 1 mps 729 mmHg 56%
    13:00 +32°C° 0 mm 1 mps 728 mmHg 53%
    14:00 +31°C° 0 mm 1 mps 728 mmHg 56%
    15:00 +31°C° 0 mm 1 mps 727 mmHg 59%
    16:00 +30°C° 0 mm 1 mps 727 mmHg 62%
    17:00 +28°C° 0 mm 1 mps 727 mmHg 69%
    18:00 +27°C° 0 mm 1 mps 728 mmHg 76%
    19:00 +25°C° 0 mm 1 mps 728 mmHg 82%
    20:00 +25°C° 0 mm 1 mps 729 mmHg 82%
    21:00 +25°C° 0 mm 1 mps 729 mmHg 81%
    22:00 +25°C° 0 mm 1 mps 730 mmHg 81%
    23:00 +24°C° 0 mm 1 mps 729 mmHg 81%

    12 December, Thursday

    Time Temperature Precipitation Wind Pressure Humidity
    00:00 +24°C° 0 mm 1 mps 729 mmHg 81%
    01:00 +24°C° 0 mm 1 mps 728 mmHg 81%
    02:00 +24°C° 0 mm 1 mps 728 mmHg 80%
    03:00 +23°C° 0 mm 1 mps 728 mmHg 79%
    04:00 +23°C° 0 mm 1 mps 728 mmHg 78%
    05:00 +24°C° 0 mm 1 mps 728 mmHg 76%
    06:00 +24°C° 0 mm 1 mps 729 mmHg 74%
    07:00 +23°C° 0 mm 0 mps 729 mmHg 73%
    08:00 +27°C° 0 mm 1 mps 729 mmHg 66%
    09:00 +29°C° 0 mm 1 mps 730 mmHg 60%
    10:00 +31°C° 0 mm 1 mps 730 mmHg 53%
    11:00 +32°C° 0 mm 1 mps 729 mmHg 53%
    12:00 +33°C° 0 mm 1 mps 728 mmHg 52%
    13:00 +33°C° 0 mm 1 mps 728 mmHg 51%
    14:00 +33°C° 0.2 mm 1 mps 727 mmHg 55%
    15:00 +32°C° 0.2 mm 1 mps 726 mmHg 59%
    16:00 +31°C° 0.2 mm 1 mps 726 mmHg 63%
    17:00 +29°C° 0.2 mm 1 mps 726 mmHg 72%
    18:00 +27°C° 0.2 mm 1 mps 727 mmHg 81%
    19:00 +25°C° 0.2 mm 1 mps 727 mmHg 90%
    20:00 +25°C° 0.2 mm 1 mps 728 mmHg 91%
    21:00 +24°C° 0.2 mm 1 mps 728 mmHg 91%
    22:00 +24°C° 0.2 mm 1 mps 729 mmHg 92%
    23:00 +24°C° 0 mm 1 mps 729 mmHg 91%

    13 December, Friday

    Time Temperature Precipitation Wind Pressure Humidity
    00:00 +24°C° 0 mm 1 mps 728 mmHg 91%
    01:00 +23°C° 0 mm 1 mps 728 mmHg 90%
    02:00 +23°C° 0 mm 1 mps 728 mmHg 88%
    03:00 +23°C° 0 mm 1 mps 728 mmHg 87%
    04:00 +23°C° 0 mm 1 mps 727 mmHg 85%
    05:00 +24°C° 0 mm 1 mps 728 mmHg 83%
    06:00 +24°C° 0 mm 1 mps 728 mmHg 81%
    07:00 +25°C° 0 mm 1 mps 729 mmHg 79%
    08:00 +27°C° 0 mm 1 mps 729 mmHg 73%
    09:00 +28°C° 0 mm 1 mps 729 mmHg 67%
    10:00 +30°C° 0 mm 1 mps 729 mmHg 61%
    11:00 +31°C° 0.1 mm 1 mps 729 mmHg 61%
    12:00 +31°C° 0.1 mm 1 mps 728 mmHg 61%
    13:00 +31°C° 0.1 mm 1 mps 727 mmHg 61%
    14:00 +31°C° 0.1 mm 1 mps 727 mmHg 64%
    15:00 +30°C° 0.1 mm 1 mps 726 mmHg 67%
    16:00 +30°C° 0.1 mm 1 mps 726 mmHg 71%
    17:00 +28°C° 0.5 mm 1 mps 726 mmHg 79%
    18:00 +24°C° 0.5 mm 0 mps 727 mmHg 87%
    19:00 +23°C° 0.5 mm 0 mps 727 mmHg 94%
    20:00 +23°C° 0.4 mm 0 mps 728 mmHg 95%
    21:00 +24°C° 0.4 mm 1 mps 728 mmHg 95%
    22:00 +24°C° 0.4 mm 1 mps 729 mmHg 95%
    23:00 +24°C° 0.2 mm 1 mps 729 mmHg 95%
    Show more